CW1675 Weather Reports


Display with metric or nautical units.
time (UTC)temp
F
wind
direction
speed
MPH
gust
MPH
rain 1hr
in
rain 24hr
in
rain mn
in
humidity
%
barometer
mb
20260831030407 63 212 6.0 13.0 0.00 0.02 0.02 84 1012.8
20260831025411 63 217 8.0 12.0 0.00 0.02 0.02 85 1012.8
20260831022403 64 219 7.0 10.0 0.00 0.02 0.02 85 1012.6
20260831021904 64 226 6.0 14.0 0.00 0.02 0.02 85 1012.6
20260831020904 64 224 7.0 13.0 0.00 0.02 0.02 86 1012.5
20260831015905 64 200 5.0 16.0 0.00 0.02 0.02 86 1012.5
20260831015404 64 187 5.0 14.0 0.00 0.02 0.02 86 1012.6
20260831013404 63 166 5.0 8.0 0.02 0.02 0.02 87 1012.6
20260831012905 64 230 5.0 9.0 0.02 0.02 0.02 87 1012.6
20260831011404 64 198 5.0 7.0 0.02 0.02 0.02 85 1012.6
20260831010905 64 219 3.0 8.0 0.02 0.02 0.02 85 1012.7
20260831010404 64 193 3.0 7.0 0.02 0.02 0.02 84 1012.7
20260831005905 64 165 3.0 6.0 0.02 0.02 0.02 83 1012.7
20260831005403 65 211 3.0 7.0 0.02 0.02 0.02 82 1012.8
20260831004904 65 232 5.0 6.0 0.02 0.02 0.02 81 1012.8
20260831003904 65 232 6.0 9.0 0.00 0.00 0.00 78 1012.4
20260831002906 65 176 6.0 10.0 0.00 0.00 0.00 76 1012.4
20260831000404 66 163 6.0 8.0 0.00 0.00 0.00 72 1012.6
20260830233904 65 162 3.0 7.0 0.00 0.02 0.00 74 1012.5
20260830232905 65 166 3.0 8.0 0.00 0.02 0.00 75 1012.5
20260830231404 65 159 3.0 5.0 0.00 0.02 0.00 76 1012.4
20260830230404 65 160 2.0 6.0 0.00 0.03 0.00 76 1012.6
20260830225905 64 155 3.0 5.0 0.00 0.03 0.00 76 1012.6
20260830224404 64 153 3.0 5.0 0.00 0.03 0.00 77 1012.6
20260830223403 64 167 3.0 6.0 0.00 0.03 0.00 77 1012.7
20260830221408 65 168 3.0 6.0 0.00 0.03 0.00 75 1012.7
20260830215905 66 161 3.0 6.0 0.00 0.03 0.00 74 1012.8
20260830215403 66 164 3.0 8.0 0.00 0.03 0.03 74 1012.8
20260830214903 66 149 3.0 7.0 0.00 0.03 0.03 74 1012.8
20260830214404 66 158 3.0 6.0 0.00 0.03 0.03 74 1012.8
20260830213904 66 158 3.0 8.0 0.00 0.03 0.03 74 1013.0
20260830213404 66 154 3.0 6.0 0.00 0.03 0.03 74 1013.0
20260830211903 65 162 3.0 6.0 0.00 0.03 0.03 75 1013.1
20260830211404 65 158 3.0 5.0 0.00 0.03 0.03 76 1013.1
20260830205404 65 163 3.0 5.0 0.00 0.03 0.03 76 1013.2
20260830204904 65 161 3.0 5.0 0.00 0.03 0.03 76 1013.2
20260830204405 66 163 3.0 6.0 0.00 0.03 0.03 75 1013.2
20260830203904 66 162 3.0 5.0 0.00 0.03 0.03 75 1013.2
20260830203404 66 163 2.0 7.0 0.00 0.03 0.03 74 1013.2
20260830202906 66 160 2.0 7.0 0.00 0.03 0.03 74 1013.2
20260830201903 66 155 2.0 6.0 0.00 0.03 0.03 75 1013.3
20260830201405 66 167 2.0 6.0 0.00 0.03 0.03 75 1013.3
20260830200404 66 156 2.0 6.0 0.00 0.03 0.03 76 1013.3
20260830191903 65 154 1.0 2.0 0.00 0.03 0.03 81 1013.6
20260830191404 65 153 0.0 2.0 0.00 0.03 0.03 81 1013.6
20260830185904 65 153 0.0 2.0 0.00 0.03 0.03 78 1013.6
20260830185403 66 153 0.0 2.0 0.00 0.03 0.03 77 1013.6
20260830183904 67 153 1.0 2.0 0.00 0.03 0.03 73 1013.6
20260830182905 67 150 1.0 3.0 0.00 0.03 0.03 72 1013.6
20260830181904 68 129 2.0 2.0 0.00 0.03 0.03 71 1013.7
20260830175404 69 183 2.0 3.0 0.00 0.03 0.03 68 1013.7
20260830173904 69 168 2.0 6.0 0.00 0.03 0.03 66 1013.8
20260830173404 69 159 2.0 7.0 0.00 0.03 0.03 66 1013.8
20260830171903 70 189 2.0 6.0 0.00 0.03 0.03 67 1013.9
20260830170403 70 185 2.0 6.0 0.00 0.04 0.03 66 1014.0
20260830165404 70 187 2.0 3.0 0.00 0.04 0.03 67 1013.9
20260830164404 70 204 2.0 3.0 0.00 0.04 0.03 67 1013.9
20260830162904 71 205 4.0 5.0 0.00 0.04 0.03 66 1014.1
20260830161904 71 218 5.0 8.0 0.00 0.04 0.03 65 1014.1
20260830155404 71 280 5.0 9.0 0.00 0.04 0.03 64 1014.3
20260830154403 71 259 5.0 9.0 0.00 0.04 0.03 64 1014.3
20260830152403 71 224 6.0 15.0 0.00 0.04 0.03 62 1014.4
20260830151904 71 209 7.0 16.0 0.00 0.04 0.03 63 1014.4
20260830151403 71 219 7.0 12.0 0.00 0.04 0.03 63 1014.4
20260830150903 71 204 7.0 9.0 0.00 0.04 0.03 63 1014.4
20260830144903 72 213 6.0 17.0 0.00 0.04 0.03 62 1014.4
20260830144403 72 221 6.0 12.0 0.00 0.04 0.03 62 1014.4
20260830143403 72 225 6.0 12.0 0.00 0.04 0.03 63 1014.5
20260830142905 72 226 6.0 9.0 0.00 0.04 0.03 62 1014.5
20260830142402 72 210 7.0 16.0 0.00 0.04 0.03 63 1014.6
20260830141903 71 230 6.0 13.0 0.00 0.04 0.03 64 1014.6
20260830140903 72 243 5.0 15.0 0.00 0.04 0.03 62 1014.7
20260830134404 71 215 6.0 15.0 0.00 0.04 0.03 61 1014.7
20260830132905 71 221 6.0 13.0 0.00 0.04 0.03 62 1014.8
20260830132403 71 254 6.0 13.0 0.00 0.04 0.03 62 1014.8
20260830131904 72 230 6.0 12.0 0.00 0.04 0.03 62 1014.8
20260830124903 71 207 7.0 29.0 0.00 0.04 0.03 61 1014.8
20260830124403 72 242 7.0 10.0 0.00 0.04 0.03 63 1014.8
20260830122905 71 223 10.0 16.0 0.00 0.04 0.03 63 1014.8
20260830122403 71 234 12.0 14.0 0.00 0.04 0.03 65 1014.8
20260830120904 71 198 10.0 25.0 0.00 0.04 0.03 63 1014.7
20260830114404 71 259 10.0 17.0 0.00 0.04 0.03 62 1014.7
20260830113904 71 229 10.0 16.0 0.00 0.04 0.03 63 1014.7
20260830112905 71 204 9.0 17.0 0.00 0.04 0.03 62 1014.7
20260830111404 71 223 8.0 15.0 0.00 0.04 0.03 62 1014.5
20260830110904 71 242 8.0 12.0 0.00 0.04 0.03 65 1014.5
20260830105904 71 241 8.0 16.0 0.00 0.04 0.03 65 1014.5
20260830104404 70 198 7.0 15.0 0.00 0.04 0.03 68 1014.6
20260830103404 70 251 7.0 15.0 0.00 0.04 0.03 67 1014.8
20260830102905 70 225 7.0 15.0 0.00 0.04 0.03 68 1014.8
20260830102404 70 233 7.0 12.0 0.00 0.04 0.03 69 1014.6
20260830101903 70 258 7.0 12.0 0.00 0.04 0.03 70 1014.6
20260830100902 69 238 8.0 14.0 0.00 0.04 0.03 71 1014.8
20260830100405 69 233 8.0 14.0 0.00 0.04 0.03 70 1014.8
20260830095910 68 216 8.0 12.0 0.00 0.04 0.03 72 1014.8
20260830095404 68 233 8.0 17.0 0.00 0.04 0.03 72 1014.6
20260830094404 67 256 7.0 15.0 0.00 0.04 0.03 73 1014.6
20260830092403 67 230 5.0 12.0 0.00 0.04 0.03 75 1014.6
20260830091903 66 241 6.0 10.0 0.00 0.04 0.03 76 1014.6
20260830083903 65 243 6.0 13.0 0.00 0.04 0.03 78 1014.4
20260830083402 65 268 6.0 13.0 0.00 0.04 0.03 78 1014.4
20260830082904 65 260 7.0 13.0 0.00 0.04 0.03 79 1014.4
20260830081903 65 207 7.0 14.0 0.00 0.04 0.03 80 1014.3
20260830080403 64 267 8.0 21.0 0.00 0.04 0.03 80 1014.2
20260830075903 64 246 7.0 18.0 0.00 0.04 0.03 80 1014.2
20260830074904 64 241 8.0 18.0 0.00 0.04 0.03 80 1014.1
20260830073903 64 220 9.0 17.0 0.00 0.04 0.03 80 1014.0
20260830073403 64 249 9.0 18.0 0.00 0.04 0.03 81 1014.0
20260830071903 64 219 10.0 18.0 0.00 0.04 0.03 81 1013.8
20260830071403 64 234 9.0 16.0 0.00 0.04 0.03 81 1013.8
20260830065906 63 232 8.0 17.0 0.00 0.04 0.03 81 1013.7
20260830063903 63 221 9.0 18.0 0.00 0.04 0.03 82 1013.5
20260830062403 63 218 10.0 18.0 0.00 0.04 0.03 83 1013.4
20260830061404 62 227 9.0 23.0 0.00 0.04 0.03 83 1013.4
20260830055905 62 196 7.0 18.0 0.00 0.04 0.03 84 1013.2
20260830055413 62 212 7.0 13.0 0.00 0.04 0.03 84 1013.0
20260830054902 62 210 7.0 13.0 0.00 0.04 0.03 84 1013.0
20260830053402 62 219 7.0 13.0 0.00 0.04 0.03 85 1012.9
20260830051902 62 194 7.0 13.0 0.00 0.04 0.03 85 1012.7
20260830050903 62 208 7.0 10.0 0.00 0.04 0.03 84 1012.7
20260830045402 63 229 8.0 15.0 0.00 0.04 0.03 84 1012.5
20260830044909 63 223 8.0 13.0 0.00 0.04 0.03 84 1012.5
20260830044407 63 224 8.0 17.0 0.00 0.04 0.03 84 1012.5
20260830043405 63 220 7.0 12.0 0.00 0.04 0.03 84 1012.4
20260830042918 63 209 6.0 12.0 0.00 0.04 0.03 84 1012.4
20260830042403 63 204 6.0 13.0 0.00 0.04 0.03 84 1012.4
20260830041903 63 204 7.0 12.0 0.00 0.04 0.03 84 1012.4
20260830041403 63 209 8.0 9.0 0.00 0.04 0.03 83 1012.4
20260830040402 63 227 6.0 15.0 0.00 0.04 0.03 83 1012.3
20260830035904 63 222 5.0 15.0 0.00 0.04 0.03 84 1012.3
20260830035402 62 217 5.0 10.0 0.00 0.04 0.03 84 1012.3
20260830034402 62 209 3.0 7.0 0.00 0.04 0.03 83 1012.3
20260830032904 63 244 6.0 9.0 0.00 0.04 0.03 81 1012.3
20260830032403 63 192 6.0 10.0 0.00 0.04 0.03 82 1012.4